GEFSMA_850_meantemp_024.txt.gz
Temperature
12 12 12 12 12 11 11 11 11 11 11 11 12 12 12 11 11 11 11 11 10 10 10 10 10 10 10 10 9 9 10 10 10 10 10 10 11 11 11 11 11 11 11
12 12 12 12 11 11 11 11 11 12 12 12 11 11 11 11 10 10 10 9 9 9 9 9 9 9 9 9 9 9 9 9 10 10 10 10 10 10 11 11 11 11 11
12 12 12 12 12 11 11 11 12 11 11 11 11 10 10 10 10 9 9 9 8 8 9 9 9 9 9 9 9 9 9 9 10 10 10 10 10 10 10 10 10 10 10
12 12 12 12 11 11 11 11 11 11 11 10 10 10 9 9 9 9 8 8 8 8 9 9 9 9 9 9 9 9 9 9 9 9 9 9 9 9 9 9 9 9 9
12 12 12 12 11 11 11 11 11 10 10 9 9 9 9 9 9 8 8 8 8 8 8 8 8 8 8 8 8 8 8 8 8 8 8 8 8 8 7 7 7 7 7
12 12 12 11 11 11 11 10 10 9 8 8 8 8 9 9 8 8 7 7 7 7 7 7 7 7 7 7 7 7 7 7 7 6 6 6 6 6 5 5 5 5 5
12 11 11 11 11 10 10 10 9 8 8 7 7 8 8 8 7 7 7 7 7 7 6 6 6 6 6 6 6 6 6 6 5 4 3 3 3 3 3 3 3 3 4
11 11 11 11 10 10 9 9 8 7 6 6 5 5 5 6 6 6 6 5 5 5 5 5 5 5 5 5 5 4 4 4 3 1 1 1 1 1 1 2 2 2 3
11 11 11 10 10 9 9 8 7 6 5 5 4 3 3 2 2 3 4 3 3 3 4 4 4 4 4 4 3 3 3 2 0 -1 -1 -1 -1 -0 0 1 1 2 2
11 11 10 10 9 9 8 7 6 5 4 4 3 3 2 1 0 0 2 2 2 2 3 3 3 3 3 2 2 1 0 -1 -2 -2 -2 -2 -1 -1 -0 0 1 1 1
10 10 10 9 8 8 7 6 5 4 4 3 3 2 2 1 -0 -2 -2 -0 1 1 2 2 2 2 2 1 0 -1 -2 -4 -4 -3 -3 -3 -2 -2 -1 -1 -0 0 0
10 9 9 8 8 7 6 5 4 4 3 3 2 2 1 -0 -1 -3 -4 -4 -3 -1 -0 0 0 0 -0 -1 -1 -2 -3 -4 -5 -4 -4 -3 -3 -3 -2 -2 -1 -1 -1
9 9 8 7 7 6 5 4 4 3 3 2 2 1 1 -1 -2 -3 -4 -4 -5 -4 -3 -3 -3 -3 -3 -3 -4 -4 -4 -5 -5 -5 -5 -4 -4 -4 -3 -3 -3 -3 -2
8 8 7 7 6 5 4 3 3 2 2 2 1 1 0 -1 -2 -3 -4 -5 -6 -6 -6 -5 -5 -5 -6 -7 -7 -7 -6 -6 -6 -6 -6 -5 -5 -5 -5 -4 -4 -4 -4
8 7 6 6 5 4 3 3 2 2 2 1 1 0 -0 -1 -3 -4 -5 -6 -7 -7 -6 -7 -7 -7 -7 -8 -8 -8 -8 -8 -7 -7 -6 -6 -6 -6 -6 -5 -5 -5 -5
7 6 6 5 4 3 2 2 2 2 1 1 1 -0 -1 -2 -4 -5 -6 -6 -7 -8 -8 -7 -7 -7 -8 -8 -8 -8 -8 -8 -8 -7 -7 -7 -7 -7 -6 -6 -6 -6 -6
6 6 5 4 3 2 2 2 1 1 1 0 -0 -1 -2 -4 -4 -5 -6 -7 -7 -8 -9 -8 -8 -8 -8 -8 -8 -8 -8 -8 -8 -8 -8 -8 -7 -7 -7 -7 -7 -7 -6
5 5 4 3 2 2 2 1 1 1 0 -0 -1 -2 -3 -5 -5 -6 -7 -7 -8 -8 -9 -9 -9 -8 -8 -8 -8 -8 -9 -9 -9 -9 -9 -8 -8 -8 -8 -8 -8 -7 -7
5 4 3 2 2 2 1 1 0 0 -0 -1 -2 -4 -5 -6 -6 -7 -7 -8 -8 -9 -9 -9 -9 -9 -8 -8 -9 -9 -9 -9 -9 -10 -9 -9 -9 -9 -9 -8 -8 -8 -8
4 3 2 2 1 1 1 0 -0 -1 -1 -2 -4 -5 -6 -6 -7 -8 -8 -9 -9 -9 -9 -9 -9 -8 -9 -9 -9 -9 -10 -10 -10 -10 -10 -10 -10 -9 -9 -9 -9 -9 -9
3 2 1 1 1 1 0 -1 -1 -2 -3 -4 -5 -6 -7 -7 -8 -9 -9 -9 -9 -9 -9 -8 -8 -9 -9 -9 -10 -10 -10 -10 -10 -10 -10 -10 -10 -10 -10 -10 -10 -9 -9
2 1 1 1 0 -0 -1 -1 -3 -4 -5 -5 -6 -7 -7 -8 -8 -9 -9 -9 -9 -8 -8 -9 -9 -10 -10 -10 -10 -10 -10 -10 -10 -10 -11 -11 -11 -11 -10 -10 -10 -10 -10
1 1 0 0 -0 -1 -1 -2 -3 -5 -6 -6 -7 -8 -8 -8 -9 -9 -9 -9 -9 -9 -9 -10 -10 -10 -10 -10 -10 -10 -10 -11 -11 -11 -11 -11 -11 -11 -10 -10 -10 -10 -9
1 0 -0 -1 -1 -2 -2 -3 -4 -6 -6 -7 -8 -8 -9 -9 -9 -9 -9 -9 -9 -9 -10 -10 -10 -10 -10 -10 -10 -11 -11 -11 -11 -11 -11 -11 -11 -11 -10 -9 -9 -9 -9
0 -0 -1 -1 -2 -2 -3 -4 -6 -7 -8 -8 -8 -9 -9 -10 -10 -9 -9 -9 -10 -9 -10 -10 -10 -10 -10 -10 -10 -11 -11 -12 -12 -11 -11 -11 -11 -11 -10 -9 -8 -8 -9
-1 -1 -1 -2 -3 -3 -4 -5 -7 -8 -8 -9 -9 -9 -10 -10 -10 -9 -9 -10 -10 -10 -10 -10 -10 -9 -8 -9 -9 -10 -11 -12 -12 -12 -10 -11 -11 -12 -11 -9 -8 -8 -7

GEFSMA_850_meantemp_030.txt.gz
Temperature
12 12 12 12 12 12 12 12 12 12 12 12 12 12 11 11 11 10 10 10 9 9 9 9 9 9 9 9 9 9 9 9 9 9 10 10 10 10 10 10 11 11 11
12 12 12 12 12 12 12 12 12 12 11 11 11 11 11 10 10 9 9 9 8 8 8 8 8 9 9 9 9 9 9 9 9 9 9 10 10 10 10 10 10 10 10
13 12 12 12 12 12 12 12 11 11 11 11 10 10 10 9 9 8 8 8 8 8 8 8 8 8 8 8 8 8 8 8 9 9 9 9 9 9 9 10 10 10 10
13 12 12 12 12 12 12 11 11 11 11 10 9 9 9 9 8 7 7 7 7 7 7 7 7 8 8 8 8 8 8 8 8 8 8 8 8 8 8 8 8 9 9
13 12 12 12 12 12 11 11 11 11 10 10 9 9 9 8 7 7 6 6 7 7 7 7 7 7 7 7 7 7 7 7 7 7 7 7 6 6 6 6 6 7 7
13 12 12 12 11 11 11 11 11 10 10 9 9 9 9 8 7 6 6 6 6 6 6 6 6 6 7 7 7 7 7 6 6 6 6 5 5 4 4 4 4 4 4
12 12 12 11 11 11 11 11 10 10 9 9 8 7 7 7 6 6 6 5 5 6 6 6 6 6 6 6 6 6 6 6 6 5 5 4 4 3 2 2 2 2 3
12 11 11 11 11 11 11 10 9 9 8 8 7 6 6 6 5 6 6 6 5 5 5 5 5 5 5 5 5 5 5 5 5 5 4 3 2 1 1 1 1 2 2
11 11 11 11 11 11 10 9 9 8 7 7 6 5 5 6 4 4 4 4 4 4 4 5 5 5 5 4 4 4 4 4 3 3 1 0 -0 -0 0 0 1 1 1
11 11 10 10 10 10 10 9 8 7 6 5 5 5 4 3 2 3 3 2 1 2 2 2 3 4 3 3 2 2 2 1 1 -1 -1 -2 -2 -1 -1 -0 -0 0 1
10 10 10 10 10 9 9 8 7 7 6 5 4 3 2 2 1 0 1 2 1 0 -0 -0 1 1 1 0 -0 -1 -1 -2 -2 -3 -3 -3 -3 -2 -2 -1 -1 -1 -0
10 10 10 10 9 9 8 7 7 6 5 4 4 3 2 1 1 -0 -0 0 -0 -0 -1 -1 -1 -1 -1 -1 -2 -2 -2 -2 -3 -4 -4 -4 -4 -3 -3 -3 -2 -2 -2
10 10 9 9 9 8 7 6 6 5 4 4 3 2 1 1 0 -1 -2 -2 -2 -1 -1 -2 -2 -3 -3 -3 -4 -4 -4 -4 -4 -5 -5 -5 -5 -5 -4 -4 -4 -3 -3
10 9 9 8 8 7 6 6 5 4 3 3 2 2 1 1 -0 -1 -2 -3 -3 -2 -1 -1 -2 -3 -4 -5 -6 -6 -6 -6 -6 -6 -6 -6 -6 -6 -6 -5 -5 -5 -4
9 9 8 8 7 6 5 5 4 3 3 2 2 1 1 0 -0 -1 -2 -4 -4 -4 -3 -3 -3 -4 -5 -6 -6 -7 -7 -7 -7 -7 -7 -7 -7 -7 -6 -6 -6 -6 -5
9 8 7 7 6 5 5 4 3 3 2 2 1 1 -0 -1 -1 -2 -3 -4 -5 -5 -5 -4 -5 -5 -6 -6 -7 -7 -7 -7 -7 -7 -7 -7 -7 -7 -7 -7 -7 -6 -6
8 7 7 6 5 4 4 3 3 2 2 1 0 -0 -1 -1 -2 -3 -4 -5 -5 -6 -6 -5 -6 -6 -7 -7 -7 -7 -7 -7 -7 -7 -7 -7 -8 -8 -7 -7 -7 -7 -7
7 6 6 5 4 3 3 2 2 2 1 0 -0 -1 -2 -2 -3 -4 -5 -6 -6 -7 -7 -7 -7 -7 -7 -7 -7 -7 -7 -7 -7 -8 -8 -8 -8 -8 -8 -8 -7 -7 -7
6 5 5 4 3 3 2 2 1 1 0 -0 -1 -2 -2 -3 -4 -5 -6 -7 -7 -7 -8 -8 -7 -7 -7 -7 -7 -7 -7 -8 -8 -8 -8 -8 -8 -8 -8 -8 -8 -8 -8
5 4 4 3 2 2 1 1 1 0 -1 -1 -2 -2 -3 -4 -5 -7 -7 -8 -8 -8 -8 -8 -8 -7 -7 -7 -7 -8 -8 -8 -8 -8 -8 -8 -8 -8 -8 -8 -8 -8 -8
4 3 3 2 2 1 1 0 -0 -1 -2 -2 -3 -4 -5 -5 -6 -7 -8 -8 -8 -8 -8 -8 -8 -8 -8 -8 -8 -8 -9 -9 -9 -8 -8 -8 -8 -8 -8 -8 -8 -8 -8
3 2 2 1 1 1 0 -0 -1 -2 -2 -3 -4 -5 -6 -6 -7 -8 -8 -9 -9 -9 -8 -8 -8 -8 -8 -8 -9 -9 -9 -9 -9 -8 -9 -8 -8 -8 -8 -8 -8 -8 -8
2 1 1 0 0 -0 -1 -1 -2 -2 -3 -4 -5 -6 -7 -7 -8 -9 -9 -9 -9 -8 -8 -8 -9 -9 -9 -9 -9 -9 -9 -9 -9 -9 -9 -9 -8 -8 -8 -8 -7 -7 -7
1 1 0 -0 -0 -1 -1 -2 -2 -3 -4 -5 -6 -7 -8 -8 -9 -9 -9 -9 -9 -9 -9 -9 -10 -10 -10 -10 -10 -10 -10 -10 -10 -9 -9 -9 -9 -8 -8 -7 -6 -6 -5
0 -0 -0 -1 -1 -1 -2 -2 -3 -4 -6 -6 -7 -8 -8 -9 -9 -9 -9 -9 -9 -9 -9 -10 -10 -10 -9 -9 -9 -10 -10 -10 -10 -9 -9 -10 -9 -9 -9 -7 -6 -5 -5
-0 -1 -1 -1 -2 -2 -2 -3 -4 -6 -7 -8 -8 -8 -9 -9 -9 -9 -9 -9 -10 -10 -10 -10 -10 -9 -9 -9 -9 -10 -10 -11 -11 -11 -9 -10 -10 -10 -10 -8 -6 -5 -5

GEFSMA_850_meantemp_036.txt.gz
Temperature
13 13 13 12 12 12 12 12 12 12 12 12 12 12 12 11 10 11 10 10 10 9 9 9 9 9 9 9 9 9 9 9 10 10 10 10 10 10 10 10 10 10 10
13 13 13 12 12 12 12 12 12 12 12 12 12 12 12 11 10 10 10 9 9 9 9 8 8 8 8 8 9 9 9 9 9 9 10 10 10 10 10 10 10 10 10
13 13 13 13 12 12 12 12 12 12 12 12 12 11 11 11 10 9 9 9 9 8 8 8 8 8 8 8 8 8 8 8 9 9 9 9 9 9 10 9 9 9 9
13 13 13 13 12 12 12 12 12 12 12 12 11 11 11 10 10 9 8 8 8 8 8 8 8 8 8 8 8 8 8 8 8 8 8 8 8 8 8 8 8 7 7
13 13 13 13 12 12 12 12 12 12 12 11 11 11 10 10 9 8 8 7 7 7 7 7 7 7 7 7 7 7 7 7 7 7 7 7 7 6 6 6 6 6 5
13 13 13 13 12 12 12 12 12 11 11 11 11 11 10 9 9 8 7 7 7 7 7 6 6 7 6 6 6 6 6 6 6 6 6 5 5 5 4 4 4 4 4
13 13 13 13 12 12 12 12 11 11 11 11 10 10 9 8 8 8 7 7 6 6 6 6 6 6 6 6 6 6 6 5 5 4 4 4 3 3 3 3 3 3 2
13 13 13 12 12 12 12 11 11 11 10 10 10 10 8 8 7 7 7 6 6 5 5 5 5 5 5 5 5 5 4 4 4 3 2 1 1 1 2 2 2 2 2
13 13 12 12 12 11 11 11 11 10 10 10 9 9 8 7 7 7 6 6 5 5 5 4 4 4 4 4 4 3 3 3 2 0 -0 -0 -0 -0 0 0 1 1 1
13 12 12 12 11 11 11 11 10 10 9 9 9 8 7 6 6 6 6 5 4 4 3 3 3 3 3 2 2 2 1 0 -1 -1 -2 -2 -1 -1 -1 -1 -0 -0 0
12 12 11 11 11 11 10 10 10 9 9 8 8 7 6 5 4 3 4 4 4 3 3 3 2 2 1 1 0 -0 -1 -2 -2 -3 -3 -3 -2 -2 -2 -1 -1 -1 -1
11 11 11 10 10 10 10 10 9 9 8 8 7 6 6 4 3 2 2 2 2 3 2 2 2 1 0 -0 -1 -2 -2 -3 -3 -4 -3 -3 -3 -3 -3 -3 -3 -2 -2
11 11 10 10 10 9 9 9 9 8 8 7 6 6 5 4 3 2 1 1 1 1 2 1 0 -0 -0 -1 -1 -2 -3 -4 -4 -4 -4 -4 -4 -4 -4 -4 -4 -4 -3
11 10 10 9 9 9 9 8 8 8 7 6 6 5 4 4 3 2 1 -0 -1 -1 -1 -0 -0 -1 -2 -2 -2 -3 -4 -4 -5 -5 -5 -5 -5 -5 -5 -5 -5 -4 -4
11 10 9 9 8 8 8 8 7 7 6 5 5 4 3 3 2 1 0 -1 -2 -4 -3 -2 -3 -3 -3 -4 -4 -4 -5 -5 -6 -6 -6 -6 -5 -5 -5 -5 -5 -5 -5
10 9 9 8 8 8 7 7 6 6 5 4 4 3 3 2 1 1 -0 -1 -3 -4 -5 -4 -4 -5 -5 -5 -5 -6 -6 -6 -6 -6 -6 -6 -6 -6 -6 -6 -6 -5 -5
9 8 8 8 8 7 7 6 6 5 4 4 3 2 2 1 0 -0 -1 -2 -3 -5 -5 -5 -5 -6 -6 -6 -6 -7 -7 -7 -7 -7 -7 -6 -6 -6 -6 -6 -6 -6 -6
8 8 8 7 7 6 6 5 5 4 3 3 2 2 1 0 -0 -1 -3 -4 -5 -5 -6 -7 -7 -7 -7 -7 -7 -7 -7 -7 -7 -7 -7 -7 -7 -7 -7 -6 -6 -6 -6
7 7 7 6 6 5 5 4 4 3 2 2 1 1 -0 -1 -2 -3 -4 -5 -6 -6 -7 -8 -8 -8 -7 -8 -8 -8 -8 -8 -8 -8 -8 -7 -7 -7 -7 -7 -7 -6 -6
7 7 6 6 5 5 4 3 3 2 2 1 1 -0 -1 -2 -3 -4 -5 -6 -7 -7 -8 -8 -8 -8 -8 -8 -8 -8 -8 -8 -8 -8 -8 -8 -8 -7 -7 -7 -7 -7 -7
6 6 5 4 4 4 3 3 2 1 1 1 0 -1 -2 -3 -4 -6 -6 -7 -7 -8 -8 -8 -9 -8 -8 -8 -8 -9 -9 -9 -9 -8 -8 -8 -8 -7 -6 -6 -6 -7 -7
5 5 4 4 3 3 2 2 1 1 0 -0 -1 -2 -3 -4 -5 -6 -7 -7 -8 -8 -8 -8 -9 -9 -9 -9 -9 -9 -9 -9 -9 -8 -9 -8 -8 -7 -7 -7 -7 -7 -7
4 4 3 3 2 2 1 1 0 0 -0 -1 -2 -3 -4 -5 -6 -7 -8 -8 -8 -9 -9 -9 -9 -9 -9 -9 -9 -9 -9 -9 -9 -9 -9 -9 -8 -8 -7 -7 -7 -6 -6
3 3 2 2 1 1 1 0 -0 -1 -1 -2 -3 -5 -6 -7 -7 -8 -8 -8 -9 -9 -9 -9 -9 -9 -9 -9 -9 -9 -9 -9 -9 -8 -9 -9 -8 -8 -7 -6 -6 -6 -6
2 2 1 1 1 0 -0 -1 -1 -2 -3 -3 -5 -6 -7 -7 -8 -8 -8 -9 -9 -9 -9 -9 -9 -9 -9 -9 -9 -9 -9 -10 -10 -9 -8 -9 -8 -9 -8 -6 -5 -5 -6
1 1 1 0 -0 -1 -1 -2 -3 -3 -4 -5 -5 -6 -7 -8 -8 -9 -9 -9 -9 -9 -9 -9 -8 -8 -8 -8 -8 -9 -9 -10 -10 -10 -8 -9 -9 -10 -10 -7 -6 -5 -5

GEFSMA_850_meantemp_042.txt.gz
Temperature
15 14 14 13 13 13 13 13 13 13 12 12 12 12 12 12 12 11 10 10 9 9 9 8 8 8 8 8 8 8 8 9 9 9 9 9 9 9 9 9 9 9 9
15 14 14 13 13 13 13 12 12 12 12 12 12 12 12 12 11 11 10 10 9 9 8 8 8 8 8 8 7 7 7 8 8 8 8 8 8 8 8 8 8 8 8
14 14 13 13 13 13 12 12 12 12 12 12 12 12 12 12 11 11 10 9 9 8 8 8 8 8 8 7 7 7 7 7 7 7 7 7 7 7 7 7 6 7 7
14 14 13 13 13 12 12 12 12 12 12 12 12 12 11 11 11 11 10 9 9 8 8 8 7 7 7 7 7 6 6 6 6 6 6 6 6 5 5 5 5 5 5
14 13 13 13 12 12 12 12 12 12 12 12 12 12 11 11 11 10 10 9 8 8 8 7 7 7 6 6 6 6 6 5 5 5 5 4 4 4 4 4 4 4 4
14 13 13 13 12 12 12 12 12 12 12 12 12 11 11 10 10 10 9 8 8 7 7 7 6 6 6 5 5 5 5 5 4 4 3 3 3 2 2 3 3 3 3
14 13 13 12 12 12 12 12 12 12 12 12 12 11 11 10 10 9 8 8 7 6 6 6 5 5 5 5 5 5 5 4 4 3 2 2 1 1 1 2 2 2 2
14 13 13 13 12 12 12 12 12 12 12 11 11 11 11 10 9 8 8 7 7 6 6 5 5 4 4 4 4 4 4 4 3 2 1 1 1 1 1 1 1 1 2
15 14 13 13 12 12 12 12 12 12 12 11 11 11 11 10 9 8 8 7 6 6 5 5 4 4 4 4 4 3 3 3 2 1 0 0 -0 -0 -0 0 0 1 1
15 14 13 13 13 12 12 12 12 11 11 11 11 10 10 10 9 8 7 7 6 5 5 4 4 4 3 3 3 2 2 1 -0 -1 -1 -1 -1 -1 -1 -0 -0 0 0
15 14 13 13 12 12 12 11 11 11 11 10 10 10 9 9 8 8 7 6 5 5 5 4 4 4 3 3 2 1 1 -0 -1 -2 -2 -2 -2 -1 -1 -1 -1 -1 -1
15 14 13 12 12 12 11 11 11 10 10 10 9 9 9 8 7 6 6 5 5 5 4 4 4 3 2 2 1 0 -1 -1 -2 -3 -3 -3 -3 -2 -2 -2 -2 -2 -2
15 14 13 12 12 11 11 10 10 9 9 9 9 8 8 7 6 5 4 4 3 3 4 4 3 2 1 0 -0 -1 -2 -2 -2 -3 -4 -4 -4 -4 -4 -4 -3 -3 -3
15 14 13 12 11 11 10 10 9 9 8 8 8 7 7 6 5 4 3 2 2 1 2 2 2 1 -0 -1 -2 -2 -2 -2 -3 -3 -4 -5 -5 -5 -5 -5 -4 -4 -4
14 13 12 11 10 10 9 9 8 8 7 7 7 6 6 5 4 3 2 2 0 -2 -2 -0 -0 -1 -2 -2 -2 -3 -3 -4 -4 -4 -5 -5 -6 -6 -6 -5 -5 -5 -5
12 11 11 10 9 8 8 7 7 7 6 6 6 5 5 4 3 2 2 1 -1 -2 -3 -3 -3 -3 -2 -3 -3 -4 -5 -5 -5 -5 -5 -6 -6 -6 -6 -6 -6 -5 -5
11 10 10 9 8 7 7 6 6 6 5 5 5 4 4 3 2 2 1 -0 -1 -2 -3 -3 -3 -4 -4 -3 -4 -4 -5 -5 -5 -5 -6 -6 -6 -6 -6 -6 -6 -6 -6
10 9 9 7 6 6 6 5 5 4 4 4 4 3 3 2 1 1 -0 -1 -2 -3 -4 -4 -5 -5 -5 -5 -6 -6 -6 -6 -6 -6 -6 -6 -6 -6 -6 -6 -6 -6 -6
9 8 7 6 5 5 4 4 4 3 3 3 2 2 1 1 0 -0 -1 -2 -3 -4 -5 -6 -6 -6 -6 -6 -7 -7 -7 -7 -7 -6 -6 -6 -6 -6 -6 -6 -6 -6 -6
7 6 5 4 4 4 3 3 3 3 2 2 1 1 0 -0 -1 -1 -2 -3 -4 -5 -6 -7 -7 -7 -7 -7 -8 -8 -8 -7 -7 -6 -6 -6 -6 -6 -6 -6 -6 -6 -6
5 4 3 3 3 3 2 2 2 1 1 0 -0 -0 -1 -1 -2 -3 -4 -5 -6 -6 -7 -7 -8 -8 -8 -8 -8 -9 -9 -8 -7 -7 -6 -6 -6 -6 -5 -5 -6 -5 -5
3 2 2 2 2 2 2 1 1 1 0 -0 -0 -1 -1 -2 -3 -4 -5 -6 -7 -7 -8 -8 -8 -9 -9 -8 -9 -9 -9 -9 -9 -8 -8 -7 -7 -6 -6 -6 -6 -6 -6
2 2 2 2 2 1 1 1 0 -0 -0 -1 -1 -1 -2 -3 -4 -5 -5 -6 -7 -7 -8 -9 -9 -9 -9 -9 -9 -9 -9 -9 -9 -8 -8 -8 -6 -6 -6 -6 -6 -6 -6
1 1 1 1 1 1 0 -0 -0 -1 -1 -2 -2 -3 -3 -4 -5 -5 -6 -7 -8 -8 -8 -9 -9 -9 -9 -9 -9 -9 -9 -9 -9 -7 -8 -9 -7 -7 -7 -6 -5 -5 -5
1 1 1 1 0 -0 -1 -1 -1 -2 -2 -2 -3 -4 -5 -5 -5 -7 -8 -8 -9 -8 -8 -8 -9 -9 -9 -8 -9 -9 -9 -9 -10 -8 -7 -9 -7 -8 -7 -6 -5 -5 -5
0 0 0 -0 -1 -1 -2 -2 -3 -3 -3 -3 -4 -4 -5 -6 -7 -8 -9 -9 -9 -8 -9 -8 -8 -7 -7 -7 -8 -8 -9 -9 -10 -10 -8 -9 -9 -9 -10 -7 -6 -6 -5

GEFSMA_850_meantemp_048.txt.gz
Temperature
14 14 14 13 13 13 13 12 12 12 12 12 12 12 12 12 11 11 10 10 9 9 9 8 8 8 8 8 8 8 8 9 9 9 9 9 9 9 9 9 9 9 9
14 14 14 13 13 13 12 12 12 12 12 12 12 12 12 12 11 11 10 10 9 9 8 8 8 8 8 8 7 7 8 8 8 8 8 8 8 8 8 7 7 7 7
15 14 13 13 13 13 12 12 12 12 12 12 12 12 12 12 11 11 10 10 9 9 8 8 8 8 8 7 7 7 7 7 7 7 7 7 7 7 6 6 6 6 6
15 14 14 13 13 12 12 12 12 12 12 12 12 12 12 11 11 11 10 9 9 8 8 8 8 7 7 7 7 7 6 7 7 7 6 6 6 6 5 5 5 5 5
15 14 14 13 13 12 12 12 12 11 11 11 11 12 12 11 11 11 10 9 9 8 8 8 7 7 7 7 7 7 6 6 6 6 6 5 5 4 4 4 4 4 4
15 14 14 13 13 12 12 12 11 11 11 11 11 11 11 11 11 11 10 9 9 8 8 7 7 7 7 7 7 6 6 6 6 5 5 4 4 3 3 3 3 3 3
15 15 14 13 13 12 12 12 11 11 11 11 11 11 11 11 11 10 10 9 9 8 7 7 7 7 7 6 6 6 6 6 5 4 4 3 2 2 2 2 2 2 2
16 15 15 14 13 13 12 12 11 11 11 11 11 11 11 11 11 10 10 9 9 8 7 7 7 6 6 6 6 5 5 5 5 4 3 2 2 1 1 1 2 2 2
16 16 15 15 14 13 13 12 12 11 11 11 11 11 11 11 11 10 10 10 9 8 7 7 6 6 6 5 5 5 5 4 4 3 2 1 1 1 1 1 1 1 1
16 16 15 15 15 14 13 13 12 12 11 11 11 11 11 11 11 10 10 9 9 8 7 7 6 5 5 5 4 4 4 3 3 2 2 1 1 0 0 0 1 1 1
16 16 15 15 15 15 14 13 12 12 11 11 11 11 11 10 10 10 9 9 8 8 7 6 6 5 5 4 4 3 3 3 2 2 1 0 -0 -0 -0 -0 -0 -0 -0
15 16 15 15 15 15 14 14 13 12 11 11 10 10 10 10 10 9 9 8 8 7 6 6 5 5 4 4 3 2 2 2 2 1 1 -0 -1 -1 -1 -1 -1 -1 -1
15 15 15 15 15 15 14 13 12 11 11 10 10 9 9 9 9 9 8 7 7 6 6 5 5 4 4 3 2 1 1 1 1 1 0 -1 -1 -2 -2 -2 -2 -3 -3
15 15 15 15 15 14 14 13 12 11 10 9 9 8 8 8 8 7 6 6 5 5 5 5 4 3 2 2 1 0 0 -0 -0 -0 -0 -1 -1 -2 -3 -3 -3 -4 -4
14 14 14 14 14 14 13 12 11 10 9 9 8 7 7 6 6 6 5 4 4 3 3 3 3 2 1 1 0 -1 -1 -1 -1 -1 -1 -2 -2 -3 -4 -4 -4 -4 -4
13 13 13 13 13 13 12 11 10 9 8 7 6 6 6 5 5 4 4 3 2 1 1 1 1 0 0 0 -1 -1 -2 -2 -3 -2 -2 -3 -3 -4 -5 -5 -5 -5 -5
11 11 12 12 11 11 10 9 8 8 7 6 5 5 4 4 4 3 2 2 1 -0 -1 -0 -1 -1 -1 -1 -1 -2 -3 -3 -3 -3 -3 -4 -4 -4 -5 -5 -5 -5 -5
9 10 10 9 9 9 9 8 7 6 5 4 4 4 3 3 2 2 1 0 -1 -1 -2 -2 -2 -2 -2 -2 -3 -4 -4 -4 -4 -4 -4 -4 -4 -5 -5 -5 -6 -6 -6
8 8 8 8 8 8 7 6 5 4 4 3 3 3 3 2 2 1 0 -1 -1 -2 -2 -3 -3 -4 -4 -4 -5 -5 -5 -5 -5 -4 -4 -4 -4 -5 -5 -5 -6 -6 -6
8 8 8 7 7 6 5 4 3 3 3 3 3 2 2 1 0 -0 -1 -2 -2 -3 -3 -4 -5 -5 -6 -5 -6 -7 -7 -6 -5 -4 -4 -5 -5 -5 -5 -5 -5 -5 -5
6 6 6 5 4 4 3 3 2 2 2 2 2 1 1 0 -1 -2 -2 -3 -3 -4 -5 -5 -6 -7 -7 -7 -7 -8 -8 -7 -6 -5 -5 -5 -5 -5 -5 -5 -5 -5 -5
4 4 3 3 2 2 2 2 2 2 2 1 1 0 -0 -1 -2 -2 -3 -4 -5 -5 -6 -7 -7 -8 -8 -8 -8 -8 -8 -9 -8 -6 -7 -6 -6 -5 -5 -5 -5 -5 -5
2 1 1 1 1 1 1 1 1 1 1 0 -0 -1 -2 -2 -3 -3 -4 -4 -5 -5 -7 -8 -8 -8 -8 -8 -9 -9 -9 -9 -9 -8 -8 -7 -6 -6 -6 -6 -5 -5 -5
0 0 0 0 1 1 0 1 0 0 -0 -1 -2 -2 -3 -3 -4 -4 -5 -6 -6 -6 -7 -8 -8 -8 -9 -9 -9 -9 -9 -9 -8 -7 -7 -8 -6 -6 -6 -6 -5 -5 -5
-0 -0 -0 -0 0 -0 -0 -0 -1 -1 -2 -2 -3 -3 -4 -4 -5 -6 -7 -8 -7 -7 -7 -8 -8 -8 -8 -8 -8 -9 -8 -8 -9 -8 -7 -8 -7 -7 -7 -6 -5 -5 -6
-0 -0 -0 -0 -1 -1 -2 -2 -2 -3 -3 -3 -4 -4 -5 -5 -6 -8 -8 -8 -8 -8 -8 -7 -7 -7 -7 -7 -8 -8 -8 -9 -9 -9 -7 -8 -8 -9 -9 -7 -6 -6 -6

GEFSMA_850_meantemp_054.txt.gz
Temperature
15 14 14 14 14 13 14 13 13 13 13 12 12 12 12 11 11 10 10 11 10 10 10 10 10 10 10 9 10 10 10 10 10 10 10 10 10 10 10 10 10 10 10
15 15 14 14 14 14 13 13 13 13 12 12 12 12 12 11 11 10 10 10 10 10 10 10 10 9 9 9 9 9 9 9 9 9 9 9 9 9 9 9 9 9 9
15 15 14 14 14 13 13 13 12 12 12 12 12 12 12 11 11 10 10 9 10 10 10 10 10 9 9 9 9 9 9 9 9 9 8 8 8 8 8 7 7 8 8
15 14 14 14 13 13 13 13 13 12 12 12 12 12 12 12 11 10 10 10 9 9 10 10 9 9 9 9 8 8 8 8 8 8 8 7 7 7 7 6 6 6 6
15 14 14 14 13 13 13 13 12 12 12 12 11 11 11 11 11 11 10 10 10 10 9 10 9 9 9 9 8 8 8 8 7 7 7 7 6 6 5 5 5 4 4
15 15 14 14 13 13 13 12 12 12 12 11 11 11 11 11 11 11 11 10 10 10 9 9 9 9 9 8 8 8 7 7 7 7 7 6 5 5 4 4 4 4 4
16 15 15 14 14 13 13 13 12 12 11 11 11 11 11 11 11 11 11 10 10 10 10 9 9 9 9 8 8 8 7 7 7 6 6 5 5 4 4 3 3 3 3
16 16 15 15 14 14 13 13 12 12 11 11 11 10 10 10 11 11 11 11 10 10 10 9 9 9 8 8 8 7 7 6 6 6 5 5 4 3 3 3 3 3 3
17 16 16 15 14 14 13 13 13 12 12 12 11 10 10 11 10 11 11 11 10 10 10 9 9 8 8 7 7 7 6 6 6 5 5 4 3 3 3 2 2 2 2
16 16 15 15 14 14 14 13 13 13 12 11 11 11 11 11 11 11 11 11 10 10 9 9 8 8 7 7 6 6 6 5 5 5 4 4 3 2 2 2 2 2 2
14 14 14 14 14 13 14 13 13 13 12 12 12 12 11 10 11 11 11 11 10 10 9 8 8 7 7 6 6 5 5 5 4 4 4 3 2 2 1 1 1 1 1
13 13 13 13 13 13 13 13 13 13 12 12 11 11 11 11 10 10 10 10 10 10 9 8 7 7 6 5 5 4 4 4 4 3 3 3 2 1 1 1 1 0 0
12 13 13 13 12 12 12 12 12 12 12 11 11 11 11 10 10 10 9 9 9 8 8 7 6 6 5 4 4 3 3 3 2 2 2 2 1 1 1 1 0 -0 -1
12 12 12 12 12 11 11 11 11 11 11 11 10 10 10 10 10 9 9 8 7 6 6 6 5 5 4 3 3 2 1 1 1 1 1 1 1 1 1 1 0 -1 -1
12 12 11 11 11 10 10 10 10 10 10 10 10 10 9 9 9 8 8 7 6 5 5 5 4 4 3 2 2 1 1 0 1 1 1 0 0 0 0 -0 -1 -1 -2
11 11 11 10 10 10 9 9 9 9 9 9 9 9 8 8 7 7 6 5 5 5 4 3 3 2 2 1 1 0 -0 -0 -0 0 -0 -1 -1 -1 -1 -2 -2 -2 -3
11 10 10 10 9 9 9 9 9 9 9 9 9 8 7 7 6 5 5 4 4 4 3 2 2 1 1 0 -0 -1 -1 -1 -1 -1 -1 -1 -2 -2 -2 -3 -3 -4 -4
9 9 9 9 8 8 8 8 8 8 8 8 7 7 6 5 4 4 3 3 3 2 2 1 1 -0 -0 -1 -1 -1 -2 -2 -2 -2 -2 -2 -3 -3 -3 -3 -4 -4 -5
8 8 8 8 8 8 8 8 7 7 7 6 5 5 4 4 3 3 2 2 2 1 0 -0 -1 -2 -2 -2 -2 -2 -3 -3 -3 -3 -3 -3 -3 -3 -4 -4 -4 -4 -5
7 7 7 7 7 7 6 6 6 5 5 4 3 3 2 2 2 2 1 1 0 -0 -1 -2 -2 -3 -3 -4 -4 -5 -5 -5 -4 -4 -3 -4 -4 -4 -4 -4 -4 -4 -4
6 5 5 5 5 4 4 4 4 3 3 2 2 2 1 1 1 1 0 -0 -1 -2 -3 -3 -4 -5 -5 -5 -6 -6 -6 -6 -5 -5 -5 -5 -5 -4 -4 -4 -4 -4 -4
4 3 3 2 2 2 1 1 1 1 1 1 1 1 0 -0 -0 -1 -1 -2 -2 -3 -4 -5 -5 -6 -6 -7 -7 -7 -7 -8 -7 -6 -7 -6 -6 -5 -5 -4 -4 -4 -5
1 1 0 0 0 -0 -0 -0 0 0 0 0 -0 -0 -1 -1 -1 -2 -2 -3 -3 -4 -5 -5 -6 -7 -7 -7 -8 -8 -8 -8 -8 -7 -8 -7 -6 -6 -5 -5 -4 -4 -5
0 -0 -1 -1 -1 -1 -1 -1 -1 -1 -1 -1 -1 -1 -2 -2 -3 -3 -3 -4 -4 -5 -6 -6 -7 -7 -7 -7 -8 -8 -8 -8 -7 -7 -7 -8 -7 -7 -6 -5 -4 -4 -4
-1 -1 -1 -1 -1 -1 -1 -1 -1 -1 -2 -2 -2 -2 -3 -3 -4 -4 -5 -5 -5 -6 -6 -6 -7 -7 -7 -7 -8 -8 -8 -8 -8 -7 -7 -8 -7 -7 -6 -4 -4 -4 -4
-1 -1 -1 -1 -1 -2 -2 -2 -2 -2 -3 -3 -3 -3 -4 -4 -5 -6 -6 -6 -6 -7 -7 -7 -7 -7 -7 -7 -7 -7 -8 -8 -8 -8 -7 -8 -8 -8 -8 -5 -5 -5 -5

GEFSMA_850_meantemp_060.txt.gz
Temperature
15 15 15 16 16 16 15 15 15 14 14 14 13 13 13 13 12 12 12 12 12 12 12 12 12 12 12 12 12 12 11 11 11 11 11 11 11 11 11 11 10 10 10
15 15 14 14 15 15 14 14 14 13 13 13 13 13 13 12 12 12 12 12 12 12 12 12 12 12 11 11 11 11 11 11 11 11 11 11 11 11 10 10 10 10 9
14 14 14 14 14 14 14 14 13 13 13 13 13 13 13 12 12 12 12 12 12 12 12 12 11 11 11 11 11 11 11 11 11 11 11 11 10 10 10 10 9 9 8
15 14 14 14 14 14 13 13 13 13 13 13 13 13 13 12 12 12 12 12 12 12 12 12 12 11 11 11 11 11 11 11 11 10 10 10 10 10 10 9 8 8 7
14 14 14 14 14 13 13 13 13 13 13 13 13 12 12 12 12 12 11 11 12 12 12 12 12 11 11 11 11 11 11 10 10 10 10 10 10 9 9 9 8 7 7
14 14 14 14 13 13 13 13 12 12 12 12 12 12 12 12 12 12 12 11 11 12 12 12 12 11 11 11 10 10 10 10 10 10 10 9 9 9 9 8 7 7 6
15 14 14 14 13 13 13 13 12 12 12 11 11 11 11 11 11 12 11 11 11 11 11 12 12 11 11 11 10 10 10 10 9 9 9 9 9 8 8 7 7 6 6
15 14 14 14 13 13 13 13 12 12 12 11 11 11 10 10 11 11 11 11 11 11 11 11 11 11 11 11 10 10 9 9 9 8 8 8 8 7 7 7 6 6 5
15 14 14 13 13 12 12 12 12 12 12 11 11 11 11 11 11 11 11 11 11 11 11 10 10 10 10 10 10 10 9 8 8 8 7 7 7 6 6 6 5 5 5
14 14 13 13 12 12 12 12 12 12 12 11 11 11 11 11 11 11 11 11 10 10 10 10 9 9 9 9 9 9 8 8 7 7 7 6 6 6 5 5 4 4 4
13 13 13 13 12 12 12 12 12 12 11 11 11 11 10 10 11 11 11 11 10 9 9 9 8 8 8 8 8 8 8 7 6 6 6 6 5 5 4 4 4 3 3
13 13 13 12 12 12 12 12 11 11 11 11 11 10 10 10 10 10 10 10 10 9 8 8 7 7 7 6 6 7 6 6 5 5 5 5 5 4 3 4 3 3 3
12 12 12 12 12 12 11 11 11 11 11 11 11 10 10 10 10 10 10 9 9 9 8 7 7 6 6 5 5 5 5 5 4 5 5 4 4 4 3 3 3 3 2
11 11 11 11 11 11 11 11 11 11 11 10 10 10 10 10 9 9 9 8 8 7 7 7 6 5 5 5 4 4 4 3 3 4 4 3 3 3 3 3 2 2 2
10 10 11 11 11 11 11 10 10 10 10 10 10 10 9 9 9 9 8 8 7 6 6 6 6 5 5 4 4 3 3 2 3 3 3 2 2 2 2 2 2 1 1
9 9 9 10 10 10 10 10 10 10 9 9 9 9 9 9 8 8 8 7 7 6 5 5 5 5 4 3 3 2 2 2 2 2 1 1 1 1 1 1 1 0 -0
8 8 8 8 8 8 8 9 8 8 8 8 8 8 8 8 8 7 7 6 5 5 4 4 4 3 3 2 2 1 1 1 1 1 0 0 0 -0 -0 -0 -1 -1 -1
7 7 7 7 7 7 7 7 7 7 7 7 7 7 7 7 6 6 5 5 4 4 3 3 3 2 2 1 1 0 0 -0 -0 -0 -1 -1 -1 -1 -1 -2 -2 -2 -2
6 6 6 6 7 6 6 6 6 6 6 6 6 6 5 5 5 4 3 3 3 2 2 2 2 1 1 0 -0 -1 -1 -1 -1 -1 -2 -2 -2 -2 -3 -3 -3 -3 -3
6 6 6 5 5 5 5 5 5 5 5 4 4 4 3 3 2 2 2 1 1 1 1 1 1 0 -1 -1 -2 -2 -2 -2 -2 -3 -3 -3 -3 -3 -3 -3 -4 -4 -4
4 4 4 4 4 4 4 4 3 3 3 3 2 2 1 1 1 1 0 0 0 -0 -0 -0 -1 -2 -2 -3 -3 -4 -4 -4 -4 -3 -3 -3 -4 -3 -3 -3 -4 -4 -4
3 3 3 2 2 2 2 2 2 2 1 1 1 1 0 0 -0 -0 -1 -1 -1 -1 -2 -2 -3 -3 -4 -4 -5 -5 -5 -5 -4 -4 -5 -4 -4 -4 -3 -3 -3 -4 -4
2 2 1 1 1 0 0 1 0 0 0 0 -0 -0 -1 -1 -1 -1 -2 -2 -2 -3 -3 -3 -4 -5 -5 -6 -6 -6 -6 -6 -5 -5 -6 -4 -3 -4 -3 -3 -4 -4 -4
1 1 1 0 0 -0 -0 -0 -0 -0 -1 -1 -1 -1 -2 -2 -2 -3 -3 -3 -4 -4 -4 -5 -5 -6 -6 -6 -6 -6 -6 -6 -5 -5 -6 -5 -4 -4 -3 -3 -3 -3 -4
0 0 -0 -0 -0 -1 -1 -1 -1 -1 -2 -2 -2 -3 -3 -3 -4 -4 -4 -5 -5 -5 -6 -6 -6 -6 -6 -6 -6 -6 -7 -7 -6 -5 -6 -6 -5 -5 -3 -2 -3 -3 -4
-0 -0 -1 -1 -1 -1 -2 -2 -2 -2 -3 -3 -3 -4 -4 -4 -5 -5 -5 -6 -6 -6 -6 -6 -6 -6 -6 -6 -7 -7 -7 -7 -7 -7 -6 -7 -6 -6 -5 -3 -3 -3 -4

GEFSMA_850_meantemp_066.txt.gz
Temperature
17 17 17 16 16 16 16 16 16 15 15 15 15 14 14 14 14 13 13 13 13 13 13 13 13 13 13 13 13 13 13 13 12 12 12 12 12 12 12 12 11 11 11
16 16 16 16 16 16 16 15 15 15 15 15 14 14 14 14 14 13 13 13 13 13 13 13 13 13 13 13 13 13 12 12 12 12 12 12 12 12 11 11 11 11 11
15 15 15 15 15 15 15 15 15 14 14 14 14 14 13 13 13 13 13 13 13 12 12 12 12 12 12 12 12 12 12 12 12 12 12 12 11 11 11 11 11 11 10
15 15 15 15 15 14 14 14 14 14 14 13 13 13 13 13 13 13 13 12 12 12 12 12 12 12 12 12 11 12 12 12 11 11 11 11 11 11 11 11 10 10 10
15 14 14 14 14 14 13 13 13 13 13 13 13 12 12 12 12 12 12 12 12 12 12 12 12 12 11 11 11 11 11 11 11 11 11 11 11 10 10 10 10 10 9
14 14 14 14 14 13 13 13 13 12 12 12 12 12 12 12 12 12 12 12 12 12 12 11 11 11 11 11 10 10 10 10 10 10 10 10 10 10 9 9 9 9 9
14 14 14 14 14 13 13 13 13 13 12 12 12 12 12 12 12 11 11 11 11 11 11 11 11 11 11 10 10 10 9 9 9 9 9 9 9 9 8 8 8 8 8
14 14 14 14 13 13 13 13 13 13 13 12 12 12 11 12 12 12 12 12 12 11 11 11 11 11 10 10 10 9 9 8 8 8 8 8 8 7 7 7 7 7 7
14 14 13 13 13 13 13 13 13 12 12 12 12 12 11 11 12 12 12 12 11 11 11 11 10 10 10 9 9 9 8 8 7 7 6 6 6 6 6 6 6 5 5
14 13 13 13 13 13 12 12 12 12 12 12 11 11 11 11 11 11 11 11 11 11 11 10 10 10 9 9 8 8 7 7 6 6 5 5 5 5 5 4 4 4 4
13 13 13 13 13 12 12 12 12 12 12 11 11 11 11 10 10 10 10 10 11 11 10 10 10 9 9 8 8 7 6 6 6 5 4 4 3 3 3 4 4 4 4
13 12 12 12 12 12 12 12 12 11 11 11 11 10 10 10 10 10 9 10 10 10 10 9 9 8 8 7 7 6 6 5 5 4 3 3 3 3 3 3 3 3 3
12 12 12 12 11 11 11 11 11 11 11 11 10 10 10 10 10 9 9 9 9 9 8 8 8 8 7 7 6 6 5 4 4 3 3 3 2 2 3 3 2 2 2
11 11 11 11 11 10 10 10 10 10 10 10 10 10 9 9 9 9 8 8 8 8 8 7 7 7 7 6 6 5 4 4 3 3 2 2 2 2 2 2 2 2 2
9 9 9 9 9 10 10 10 10 9 9 9 9 9 9 9 8 8 8 8 7 7 7 7 7 6 6 5 5 4 4 3 2 2 2 1 1 1 1 1 1 1 1
8 8 8 8 8 8 9 9 9 9 8 8 8 8 8 8 8 7 7 7 7 6 6 6 6 5 5 4 4 3 3 2 1 1 1 1 1 1 1 0 0 -0 -0
7 7 7 7 8 8 8 8 8 8 7 7 7 7 7 7 6 6 6 6 6 5 5 5 4 4 4 3 3 2 2 1 1 1 0 0 -0 -0 -1 -1 -1 -1 -1
7 7 7 7 7 7 7 7 7 7 6 6 6 6 6 6 6 6 5 5 5 4 4 4 3 3 3 2 2 1 1 0 0 -0 -0 -1 -1 -1 -2 -2 -2 -2 -2
6 6 6 6 6 6 6 6 6 5 5 5 5 5 5 5 5 4 4 4 3 3 3 3 2 2 2 1 1 0 -0 -0 -1 -1 -1 -2 -2 -2 -3 -3 -3 -3 -3
5 5 5 5 5 5 5 5 4 4 4 4 4 4 3 3 3 3 2 2 2 2 2 2 1 1 1 0 -0 -1 -1 -1 -2 -2 -3 -3 -3 -3 -3 -3 -3 -3 -3
4 4 4 4 4 4 4 3 3 3 3 3 3 2 2 2 1 1 1 1 1 1 1 0 0 -0 -1 -1 -2 -2 -2 -3 -3 -3 -3 -3 -3 -3 -3 -3 -3 -3 -3
3 3 3 3 3 3 2 2 2 2 2 2 1 1 1 0 0 -0 -0 -0 -0 -0 -1 -1 -1 -2 -2 -3 -3 -3 -4 -4 -4 -4 -4 -3 -4 -4 -4 -4 -3 -3 -3
2 2 2 2 2 2 1 1 1 1 1 1 0 -0 -0 -1 -1 -1 -1 -1 -1 -2 -2 -2 -3 -3 -4 -4 -4 -5 -5 -5 -5 -5 -5 -3 -4 -4 -4 -4 -3 -3 -3
1 1 1 1 1 1 1 1 0 0 -0 -0 -0 -1 -1 -2 -2 -2 -2 -2 -3 -3 -3 -4 -4 -4 -5 -5 -6 -6 -6 -6 -5 -5 -5 -5 -4 -4 -4 -3 -3 -3 -4
1 1 0 0 0 0 -0 -0 -0 -1 -1 -1 -2 -2 -2 -3 -3 -3 -3 -3 -4 -4 -5 -5 -5 -5 -6 -6 -6 -6 -6 -6 -6 -5 -5 -5 -5 -4 -3 -3 -3 -4 -4
0 0 -0 -0 -1 -1 -1 -1 -1 -2 -2 -2 -3 -3 -3 -4 -4 -5 -4 -4 -5 -5 -5 -5 -6 -6 -6 -6 -6 -6 -6 -6 -6 -6 -6 -6 -6 -6 -5 -4 -4 -4 -4

GEFSMA_850_meantemp_072.txt.gz
Temperature
16 16 16 16 16 15 15 15 15 15 15 14 14 14 14 14 13 13 13 13 13 12 12 12 12 12 12 12 12 12 12 12 12 12 11 11 11 11 11 11 10 10 10
16 15 15 15 15 15 15 15 14 14 14 14 14 14 14 13 13 13 13 13 12 12 12 12 12 12 12 12 12 12 12 12 11 11 11 11 11 11 10 10 10 10 10
15 15 15 15 14 14 14 14 14 14 14 14 13 13 13 13 13 13 12 12 12 12 12 12 12 11 11 11 11 11 11 11 11 11 11 11 10 10 10 10 9 9 9
14 14 14 14 14 14 13 13 13 13 13 13 13 13 12 12 12 12 12 12 12 12 12 12 11 11 11 11 11 11 11 11 11 11 10 10 10 10 9 9 9 9 8
14 14 14 14 14 13 13 13 13 13 13 13 12 12 12 12 12 12 12 12 12 12 12 12 11 11 11 11 11 10 10 10 10 10 10 9 9 9 9 8 8 8 8
14 14 14 14 14 13 13 13 13 13 13 12 12 12 12 12 12 12 12 12 12 12 12 12 11 11 11 11 10 10 10 9 10 10 10 9 9 8 8 8 7 7 7
14 14 14 14 13 13 13 13 13 13 13 12 12 12 12 12 12 12 12 12 12 12 12 11 11 11 11 10 10 10 9 9 9 9 9 9 8 8 7 7 7 6 6
14 14 14 14 13 13 13 13 13 12 12 12 12 11 11 11 12 12 12 12 12 12 11 11 11 11 10 10 10 9 9 8 8 8 8 8 7 7 7 6 6 6 6
14 14 13 13 13 13 13 13 13 12 12 12 12 11 11 11 11 11 11 11 11 11 11 11 11 10 10 10 9 9 8 8 8 7 7 7 6 6 6 5 5 5 5
13 13 13 13 13 13 13 13 13 12 12 11 11 11 11 10 10 10 10 10 10 10 10 10 10 10 10 9 9 8 8 7 7 7 6 6 6 5 5 5 5 5 5
13 13 13 13 12 12 12 12 12 12 12 11 11 11 10 10 10 9 9 9 9 9 9 9 9 9 9 9 8 8 7 7 6 6 6 5 5 5 5 4 4 4 4
12 12 12 12 12 12 12 11 11 11 11 11 10 10 10 9 9 9 9 8 8 8 9 9 9 9 8 8 8 7 7 6 6 6 5 5 5 5 4 4 4 4 4
11 11 11 11 11 11 10 10 10 10 10 10 10 9 9 9 8 8 8 8 8 8 8 8 8 8 8 7 7 7 6 6 5 5 5 5 5 4 4 4 4 4 3
10 10 10 10 10 9 9 9 9 9 9 9 9 9 8 8 8 8 7 7 7 7 7 7 7 7 7 7 6 6 6 5 5 4 4 4 4 4 4 3 3 3 3
9 9 8 8 8 8 8 8 8 8 8 8 8 8 8 7 7 7 7 7 6 6 6 6 6 6 6 6 5 5 5 4 4 4 4 3 3 3 3 3 2 2 2
7 7 7 7 7 7 7 7 8 8 7 7 7 7 7 6 6 6 6 6 6 5 5 5 5 4 5 4 4 4 4 4 3 3 3 3 3 2 2 2 2 2 1
7 7 7 7 7 7 7 7 7 7 7 7 6 6 6 6 6 5 5 5 5 5 4 4 4 4 4 4 3 3 3 3 2 2 2 2 2 1 1 1 1 1 1
6 6 6 6 6 6 6 6 6 6 6 6 6 5 5 5 5 5 5 4 4 4 4 3 3 3 3 2 2 2 2 2 1 1 1 1 1 0 0 0 0 -0 -0
5 5 5 5 5 5 5 5 5 5 5 5 5 4 4 4 4 4 4 3 3 3 3 3 2 2 2 2 1 1 1 1 1 1 0 0 0 -0 -0 -0 -1 -1 -1
5 5 5 5 5 5 4 4 4 4 4 4 3 3 3 3 3 3 2 2 2 2 2 2 2 1 1 1 0 0 0 0 -0 -0 -0 -1 -1 -1 -1 -1 -1 -2 -2
4 4 4 4 4 4 3 3 3 3 3 3 2 2 2 2 2 2 1 1 1 1 1 1 1 0 -0 -0 -1 -1 -1 -1 -1 -1 -1 -2 -2 -2 -2 -2 -2 -2 -2
3 3 3 3 3 3 2 2 2 2 2 2 1 1 1 1 1 0 0 0 0 0 -0 -0 -1 -1 -1 -2 -2 -2 -2 -2 -2 -3 -2 -2 -2 -2 -2 -2 -2 -2 -3
2 2 2 2 2 2 2 2 2 1 1 1 1 0 0 0 -0 -0 -1 -1 -1 -1 -2 -2 -2 -2 -3 -3 -3 -4 -4 -4 -4 -4 -4 -3 -3 -3 -3 -3 -3 -3 -3
2 2 1 1 1 1 1 1 1 1 0 0 -0 -0 -1 -1 -1 -1 -2 -2 -2 -2 -3 -3 -4 -4 -4 -4 -4 -5 -5 -5 -4 -5 -5 -4 -4 -4 -4 -3 -3 -3 -3
1 1 1 1 1 1 0 0 0 0 -0 -0 -1 -1 -1 -2 -2 -3 -3 -3 -3 -4 -4 -4 -5 -5 -5 -5 -5 -5 -5 -5 -5 -5 -5 -5 -4 -4 -4 -3 -3 -3 -4
1 0 0 0 0 0 -0 -0 -0 -1 -1 -1 -1 -2 -2 -3 -3 -3 -3 -4 -4 -4 -4 -5 -5 -5 -5 -5 -5 -5 -6 -6 -6 -6 -6 -6 -5 -5 -5 -4 -4 -4 -5

GEFSMA_850_meantemp_078.txt.gz
Temperature
15 15 15 15 15 14 14 14 14 13 14 14 14 14 14 13 13 13 13 14 13 13 13 12 12 12 12 12 12 12 12 12 12 12 12 12 12 12 11 11 11 11 10
15 15 15 15 14 14 14 14 13 13 13 13 13 13 13 13 13 13 13 13 13 13 13 12 12 12 12 12 12 12 12 12 12 12 12 12 11 11 11 11 11 10 10
15 14 14 14 14 14 14 13 13 13 13 13 13 13 13 13 13 13 13 13 13 13 13 12 12 12 12 11 11 11 11 11 11 11 11 11 11 11 11 10 10 10 10
14 14 14 14 14 13 13 13 13 13 13 13 13 13 13 13 13 13 13 13 13 13 12 12 12 12 11 11 11 11 10 11 11 11 10 10 10 10 10 10 10 9 9
14 14 14 14 14 13 13 13 13 13 13 13 13 13 13 13 13 13 13 13 13 12 12 12 12 12 11 11 11 11 10 10 10 10 10 10 10 10 10 9 9 9 9
14 14 14 14 14 13 13 13 13 13 13 13 13 13 13 13 13 13 13 13 12 12 12 12 12 12 11 11 11 10 10 10 10 10 10 9 9 9 9 9 9 8 8
14 14 14 14 14 14 14 13 13 13 13 13 12 12 12 12 12 12 12 12 12 12 12 12 12 11 11 11 11 10 10 10 9 9 9 9 9 8 8 8 8 8 8
14 14 14 14 14 14 14 13 13 13 12 12 12 11 11 12 12 12 12 12 12 12 11 11 11 11 11 10 10 10 10 9 9 9 9 8 8 8 8 7 7 7 7
14 14 14 14 14 13 13 13 13 12 12 12 11 11 11 12 12 11 11 11 11 11 11 10 10 10 10 10 10 10 10 9 9 9 8 8 8 8 7 7 7 7 6
14 14 13 13 13 13 13 13 13 12 12 11 11 11 10 10 10 10 10 10 10 10 10 10 9 9 9 9 9 9 9 9 9 9 8 8 8 7 7 7 6 6 6
13 13 13 13 13 12 12 12 12 12 11 11 10 10 10 10 10 9 9 9 9 9 9 9 8 8 8 8 8 8 8 8 8 8 8 8 8 7 7 7 6 6 6
12 12 12 12 12 12 12 11 11 11 10 10 10 9 9 9 9 9 9 9 8 8 8 8 8 8 8 8 8 8 8 8 8 8 7 7 7 7 7 6 6 6 6
11 11 11 11 11 11 11 10 10 10 10 10 9 9 9 9 8 8 8 8 8 7 7 7 7 7 7 7 7 7 7 7 7 7 7 7 6 6 6 6 6 6 5
10 10 10 10 10 10 9 9 9 9 9 9 9 8 8 8 8 7 7 7 7 7 6 6 7 6 6 6 6 6 6 6 6 6 6 6 6 6 6 5 5 5 5
9 9 9 9 9 9 8 8 8 8 8 8 8 8 8 7 7 7 7 6 6 6 6 6 6 5 5 5 5 5 5 5 5 5 5 5 5 5 5 5 4 4 4
8 8 8 8 8 8 7 7 7 7 7 7 7 7 7 7 7 6 6 6 5 5 5 5 5 5 5 4 4 4 4 4 4 4 4 4 4 4 4 4 4 4 4
7 7 7 7 7 7 7 7 7 7 6 7 7 6 6 6 6 6 5 5 5 4 4 4 4 4 4 4 3 3 3 3 3 3 3 3 3 3 3 3 3 3 3
7 6 6 6 6 6 6 6 6 6 6 6 6 6 6 5 5 5 5 5 5 4 4 3 3 3 3 3 3 3 2 2 2 2 2 2 2 2 2 2 2 2 2
6 6 6 6 5 5 5 5 5 5 5 5 5 5 5 5 4 4 4 4 4 4 3 3 3 2 2 2 2 2 2 1 1 1 1 1 1 1 1 1 1 1 1
5 5 5 5 5 5 5 5 5 4 4 4 4 4 4 4 4 4 3 3 3 3 3 2 2 1 1 1 1 1 1 1 1 1 1 1 1 1 1 1 0 0 0
4 4 4 4 4 4 4 4 4 4 4 4 3 3 3 3 3 3 3 3 2 2 2 1 1 0 -0 -0 -0 -0 -1 -0 -0 -0 -0 -0 -0 -0 -0 -0 -0 -0 -0
3 3 3 3 3 3 3 3 3 3 3 3 3 3 2 2 2 2 2 2 2 1 1 0 -1 -1 -1 -2 -2 -1 -2 -2 -2 -2 -1 -1 -1 -1 -1 -1 -1 -1 -1
2 2 2 2 2 2 2 2 2 2 2 2 2 2 2 1 1 1 1 1 0 0 -0 -1 -2 -2 -2 -2 -2 -3 -3 -3 -3 -2 -2 -2 -2 -2 -2 -2 -2 -2 -2
1 1 1 1 1 1 1 2 2 2 2 1 1 1 1 1 1 0 0 -0 -1 -1 -1 -2 -2 -2 -3 -3 -3 -3 -3 -3 -3 -3 -3 -3 -3 -3 -3 -3 -2 -2 -3
1 1 1 1 1 1 1 1 1 1 1 1 1 1 0 0 -0 -0 -1 -1 -2 -2 -2 -2 -2 -3 -3 -3 -3 -4 -4 -4 -4 -4 -4 -4 -4 -3 -3 -3 -3 -3 -3
0 0 0 0 0 0 0 0 0 0 0 0 0 0 -0 -1 -1 -1 -2 -2 -2 -3 -3 -3 -3 -3 -3 -3 -4 -4 -4 -4 -5 -5 -5 -5 -4 -4 -4 -4 -4 -4 -4

GEFSMA_850_meantemp_084.txt.gz
Temperature
15 14 15 14 15 14 14 15 14 14 14 14 14 14 14 14 14 14 14 14 14 14 14 13 13 13 13 13 13 13 13 13 12 12 12 12 12 12 12 12 12 12 11
14 14 14 14 14 14 14 14 14 14 14 14 14 14 14 14 13 13 13 13 13 13 13 13 13 13 13 12 12 12 12 12 12 12 12 12 12 12 12 12 11 11 11
14 14 14 14 14 14 14 14 14 14 14 14 13 13 13 13 13 13 13 13 13 13 13 13 13 12 12 12 12 12 11 11 11 11 11 11 11 11 11 11 11 11 11
14 14 14 14 14 14 14 14 14 13 13 13 13 13 13 13 13 13 13 13 12 12 12 12 12 12 12 12 12 11 11 11 11 11 11 11 11 10 10 11 11 11 10
14 14 14 14 14 14 14 13 13 13 13 13 13 13 13 13 13 13 13 13 12 12 12 12 12 12 12 11 11 11 11 11 11 11 10 10 10 10 10 10 10 10 10
14 14 14 14 14 14 13 13 13 13 13 13 13 13 13 13 13 13 13 13 12 12 12 11 11 11 11 11 11 11 11 11 10 10 10 10 10 10 9 9 9 9 9
14 14 14 14 14 14 13 13 13 13 13 13 12 12 13 13 13 13 13 12 12 12 11 11 11 11 11 10 10 10 10 10 10 10 10 10 9 9 9 9 9 9 9
14 14 14 14 14 14 13 13 13 13 13 12 12 11 11 12 13 12 12 12 12 11 11 11 11 10 10 10 10 10 10 10 10 10 10 10 9 9 9 9 9 9 8
14 14 14 14 13 13 13 13 13 12 12 12 12 11 11 11 12 12 12 12 11 11 11 10 10 10 9 9 9 9 9 9 9 9 9 9 9 9 9 8 8 8 8
14 14 14 14 13 13 13 13 12 12 12 11 11 11 10 10 10 10 11 11 11 10 10 10 9 9 9 8 8 8 8 8 8 9 9 9 9 8 8 8 8 8 8
14 14 14 13 13 13 12 12 12 11 11 10 10 10 10 10 10 9 10 10 10 10 9 9 9 8 8 8 8 7 7 8 8 8 8 8 8 8 8 8 8 8 7
13 13 13 13 12 12 12 11 11 11 10 10 10 9 9 9 9 9 9 9 9 9 9 8 8 8 7 7 7 7 7 7 7 7 7 7 7 7 7 7 7 7 7
12 12 12 12 11 11 11 11 10 10 10 9 9 9 9 9 8 8 8 8 8 8 8 8 7 7 7 7 6 6 6 6 6 6 6 6 7 7 7 7 7 7 6
12 11 11 11 11 10 10 10 9 9 9 9 8 8 8 8 8 8 8 7 7 7 7 7 7 6 6 6 6 5 5 5 5 6 6 6 6 6 6 6 6 6 6
11 11 10 10 10 9 9 9 8 8 8 8 8 8 7 7 7 7 7 7 6 6 6 6 6 6 5 5 5 5 5 5 5 5 5 5 5 5 5 5 5 5 5
10 10 10 9 9 8 8 8 8 8 7 7 7 7 7 7 7 7 6 6 6 5 5 5 5 5 5 4 4 4 4 4 4 4 4 4 4 4 4 4 4 4 4
9 9 9 8 8 8 7 7 7 7 6 6 6 6 6 6 6 6 6 6 6 5 4 4 4 4 4 4 4 4 3 3 3 3 3 3 3 3 3 3 3 3 3
8 8 8 7 7 7 6 6 6 6 6 6 6 6 5 5 5 5 5 5 5 5 4 4 3 3 3 3 3 3 3 2 2 2 2 2 2 2 2 2 3 3 3
7 7 7 6 6 6 6 5 5 5 5 5 5 5 5 5 5 5 5 5 4 4 4 3 3 3 3 2 2 2 2 2 2 1 2 2 2 2 2 2 2 2 2
6 6 6 5 5 5 5 5 5 5 4 4 4 4 4 4 4 4 4 4 4 4 3 3 2 2 2 2 2 2 1 1 1 1 1 1 1 1 1 1 1 1 1
6 5 5 5 4 4 4 4 4 4 3 3 3 3 3 3 3 3 3 3 3 3 3 2 2 1 1 1 1 1 1 1 0 0 0 0 0 0 0 0 1 1 1
5 4 4 4 4 3 3 3 3 3 3 3 3 3 3 3 3 3 2 2 2 2 2 2 1 1 0 0 0 0 0 -0 -0 -0 -0 -0 -0 -0 -0 -0 -0 -0 -0
4 3 3 3 3 2 2 2 2 2 2 2 2 2 2 2 2 2 2 2 2 1 1 1 1 0 -0 -0 -0 -0 -1 -1 -1 -1 -1 -1 -1 -1 -1 -1 -1 -1 -1
3 2 2 2 2 2 2 2 2 2 1 1 1 1 1 1 1 1 1 1 1 1 1 0 -0 -0 -1 -1 -1 -1 -1 -1 -1 -2 -2 -2 -1 -2 -2 -1 -2 -2 -2
2 2 2 1 1 1 1 1 1 1 1 1 1 1 1 1 1 1 1 1 0 0 -0 -0 -1 -1 -1 -1 -1 -2 -2 -2 -2 -2 -2 -2 -2 -2 -2 -2 -2 -2 -3
1 1 1 1 1 1 1 1 1 1 1 1 1 0 0 0 0 0 0 0 0 -0 -1 -1 -1 -1 -1 -2 -2 -2 -2 -2 -3 -3 -3 -3 -3 -3 -3 -2 -3 -3 -3

GEFSMA_850_meantemp_090.txt.gz
Temperature
16 16 16 16 16 16 15 15 15 15 15 15 14 14 14 14 14 14 14 13 13 13 13 13 13 12 12 12 12 12 12 12 12 12 12 12 12 12 12 12 12 12 11
15 15 15 15 15 15 15 15 15 14 14 14 14 14 14 14 13 13 13 13 13 13 12 12 12 12 12 12 12 12 12 12 11 11 11 11 11 11 11 11 11 11 11
15 15 15 15 15 15 14 14 14 14 14 14 14 14 13 13 13 13 13 13 13 12 12 12 12 12 12 12 11 11 11 11 11 11 11 11 11 11 11 11 11 11 11
14 14 14 14 14 14 14 14 14 14 14 13 13 13 13 13 13 13 13 13 12 12 12 12 12 12 12 11 11 11 11 11 11 11 10 10 10 10 10 10 10 10 10
14 14 14 14 14 14 14 14 13 13 13 13 13 13 13 13 13 13 13 13 12 12 12 12 11 11 11 11 11 11 11 11 10 10 10 10 10 10 10 10 10 10 10
14 14 14 14 14 14 14 13 13 13 13 13 13 13 13 13 13 13 13 13 12 12 12 11 11 11 11 11 11 10 10 10 10 10 10 10 10 10 10 10 10 10 10
14 14 14 14 14 14 14 13 13 13 13 13 12 13 13 13 13 13 13 12 12 12 11 11 11 11 11 10 10 10 10 10 10 10 9 10 10 9 9 9 9 9 9
14 14 14 14 14 14 13 13 13 13 13 12 12 12 12 12 12 12 12 12 12 11 11 11 11 10 10 10 10 9 9 9 9 9 9 9 9 9 9 9 9 9 9
14 14 14 14 14 13 13 13 13 13 12 12 12 11 11 11 11 11 11 11 11 11 10 10 10 10 10 9 9 9 9 8 8 8 8 8 8 8 9 9 9 9 9
14 14 14 14 13 13 13 13 13 12 12 12 12 11 10 10 10 10 10 10 10 10 10 10 9 9 9 9 8 8 8 8 8 8 8 8 8 8 8 8 8 8 8
14 14 14 13 13 13 13 13 12 12 12 11 11 10 10 9 9 9 9 9 9 9 9 9 9 9 8 8 8 8 7 7 7 7 7 7 7 8 8 8 8 8 8
14 14 13 13 13 13 12 12 12 11 11 11 10 10 9 9 9 8 8 8 8 8 8 8 8 8 8 7 7 7 7 7 6 6 6 6 7 7 7 7 7 7 7
14 13 13 13 13 12 12 12 11 11 11 10 10 9 9 8 8 8 8 8 7 7 7 7 7 7 7 7 6 6 6 6 6 6 6 6 6 6 6 6 7 6 6
13 13 13 12 12 12 11 11 11 10 10 9 9 9 8 8 8 8 7 7 7 6 6 6 6 6 6 6 5 5 5 5 5 5 5 5 5 6 6 6 6 6 6
12 12 12 11 11 11 11 10 10 10 9 9 8 8 8 7 7 7 7 7 6 6 6 5 5 5 5 5 5 5 5 4 4 4 4 4 5 5 5 5 5 5 5
12 11 11 11 10 10 10 9 9 9 8 8 7 7 7 6 6 6 6 6 6 5 5 5 5 4 4 4 4 4 4 4 4 4 4 4 4 4 4 4 4 4 4
11 11 10 10 10 9 9 8 8 7 7 7 6 6 6 6 6 6 6 5 5 5 4 4 4 3 3 3 3 3 3 3 3 3 3 3 3 3 3 4 4 4 4
10 10 9 9 9 8 8 7 7 6 6 6 5 5 5 5 5 5 5 5 5 4 4 4 3 3 3 3 3 2 2 2 2 2 2 2 3 3 3 3 3 3 3
9 9 9 8 8 7 7 6 6 6 5 5 5 5 5 5 4 4 4 4 4 4 4 3 3 3 2 2 2 2 2 1 1 1 2 2 2 2 2 2 2 2 2
8 8 8 7 7 6 6 5 5 5 5 5 4 4 4 4 4 4 4 4 4 4 3 3 3 2 2 2 2 1 1 1 1 1 1 1 1 1 1 1 1 2 2
7 7 7 6 6 5 5 5 4 4 4 4 4 3 3 3 3 3 3 3 3 3 3 3 2 2 2 1 1 1 1 1 0 0 0 0 0 0 1 1 1 1 1
7 6 6 5 5 5 4 4 4 3 3 3 3 3 2 2 2 3 3 3 3 3 2 2 2 2 1 1 1 0 0 0 0 -0 -0 -0 -0 -0 0 0 0 0 0
6 5 5 4 4 3 3 3 2 2 2 2 2 2 2 2 2 2 2 2 2 2 2 2 1 1 1 0 0 0 -0 -0 -0 -0 -0 -0 -0 -0 -0 -0 -0 -0 -0
5 5 4 3 3 2 2 2 2 1 1 1 1 1 1 1 1 1 1 2 2 1 1 1 1 0 0 -0 -0 -0 -0 -1 -1 -1 -1 -1 -1 -1 -1 -1 -1 -1 -1
4 4 3 2 2 2 1 1 1 1 1 1 1 1 1 1 1 1 1 1 1 1 1 0 0 0 -0 -0 -1 -1 -1 -1 -1 -1 -1 -1 -1 -1 -1 -1 -2 -2 -2
3 2 2 2 1 1 1 1 1 1 1 1 1 1 0 0 0 0 0 0 0 0 -0 -0 -0 -1 -1 -1 -1 -1 -1 -1 -1 -1 -2 -2 -2 -2 -2 -2 -2 -2 -2